Year,Month,Day,Hour,Minute,Value (Times are PST for barometer in hPa)
2010,04,02,00,00,1006.38
2010,04,02,00,01,1006.33
2010,04,02,00,02,1006.33
2010,04,02,00,03,1006.33
2010,04,02,00,04,1006.33
2010,04,02,00,05,1006.33
2010,04,02,00,06,1006.33
2010,04,02,00,07,1006.33
2010,04,02,00,08,1006.33
2010,04,02,00,09,1006.33
2010,04,02,00,10,1006.33
2010,04,02,00,11,1006.33
2010,04,02,00,12,1006.33
2010,04,02,00,13,1006.33
2010,04,02,00,14,1006.33
2010,04,02,00,15,1005.88
2010,04,02,00,16,1005.86
2010,04,02,00,17,1005.86
2010,04,02,00,18,1005.86
2010,04,02,00,19,1005.86
2010,04,02,00,20,1005.86
2010,04,02,00,21,1005.86
2010,04,02,00,22,1005.86
2010,04,02,00,23,1005.86
2010,04,02,00,24,1005.86
2010,04,02,00,25,1005.86
2010,04,02,00,26,1005.86
2010,04,02,00,27,1005.86
2010,04,02,00,28,1005.86
2010,04,02,00,29,1005.86
2010,04,02,00,30,1005.45
2010,04,02,00,31,1005.45
2010,04,02,00,32,1005.45
2010,04,02,00,33,1005.45
2010,04,02,00,34,1005.45
2010,04,02,00,35,1005.45
2010,04,02,00,36,1005.45
2010,04,02,00,37,1005.45
2010,04,02,00,38,1005.45
2010,04,02,00,39,1005.45
2010,04,02,00,40,1005.45
2010,04,02,00,41,1005.45
2010,04,02,00,42,1005.45
2010,04,02,00,43,1005.45
2010,04,02,00,44,1005.45
2010,04,02,00,45,1005.01
2010,04,02,00,46,1005.01
2010,04,02,00,47,1005.01
2010,04,02,00,48,1005.01
2010,04,02,00,49,1005.01
2010,04,02,00,50,1005.01
2010,04,02,00,51,1005.01
2010,04,02,00,52,1005.01
2010,04,02,00,53,1005.01
2010,04,02,00,54,1005.01
2010,04,02,00,55,1005.01
2010,04,02,00,56,1005.01
2010,04,02,00,57,1005.01
2010,04,02,00,58,1005.01
2010,04,02,00,59,1005.01
2010,04,02,01,00,1004.57
2010,04,02,01,01,1004.57
2010,04,02,01,02,1004.57
2010,04,02,01,03,1004.57
2010,04,02,01,04,1004.57
2010,04,02,01,05,1004.57
2010,04,02,01,06,1004.57
2010,04,02,01,07,1004.57
2010,04,02,01,08,1004.57
2010,04,02,01,09,1004.57
2010,04,02,01,10,1004.57
2010,04,02,01,11,1004.57
2010,04,02,01,12,1004.57
2010,04,02,01,13,1004.57
2010,04,02,01,14,1004.57
2010,04,02,01,15,1004.17
2010,04,02,01,16,1004.17
2010,04,02,01,17,1004.17
2010,04,02,01,18,1004.17
2010,04,02,01,19,1004.17
2010,04,02,01,20,1004.17
2010,04,02,01,21,1004.17
2010,04,02,01,22,1004.17
2010,04,02,01,23,1004.17
2010,04,02,01,24,1004.17
2010,04,02,01,25,1004.17
2010,04,02,01,26,1004.17
2010,04,02,01,27,1004.17
2010,04,02,01,28,1004.17
2010,04,02,01,29,1004.17
2010,04,02,01,30,1004.00
2010,04,02,01,31,1004.00
2010,04,02,01,32,1004.00
2010,04,02,01,33,1004.00
2010,04,02,01,34,1004.00
2010,04,02,01,35,1004.00
2010,04,02,01,36,1004.00
2010,04,02,01,37,1004.00
2010,04,02,01,38,1004.00
2010,04,02,01,39,1004.00
2010,04,02,01,40,1004.00
2010,04,02,01,41,1004.00
2010,04,02,01,42,1004.00
2010,04,02,01,43,1004.00
2010,04,02,01,44,1004.00
2010,04,02,01,45,1003.61
2010,04,02,01,46,1003.59
2010,04,02,01,47,1003.59
2010,04,02,01,48,1003.59
2010,04,02,01,49,1003.59
2010,04,02,01,50,1003.59
2010,04,02,01,51,1003.59
2010,04,02,01,52,1003.59
2010,04,02,01,53,1003.59
2010,04,02,01,54,1003.59
2010,04,02,01,55,1003.59
2010,04,02,01,56,1003.59
2010,04,02,01,57,1003.59
2010,04,02,01,58,1003.59
2010,04,02,01,59,1003.59
2010,04,02,02,00,1003.20
2010,04,02,02,01,1003.18
2010,04,02,02,02,1003.18
2010,04,02,02,03,1003.18
2010,04,02,02,04,1003.18
2010,04,02,02,05,1003.18
2010,04,02,02,06,1003.18
2010,04,02,02,07,1003.18
2010,04,02,02,08,1003.18
2010,04,02,02,09,1003.18
2010,04,02,02,10,1003.18
2010,04,02,02,11,1003.18
2010,04,02,02,12,1003.18
2010,04,02,02,13,1003.18
2010,04,02,02,14,1003.18
2010,04,02,02,15,1002.98
2010,04,02,02,16,1002.98
2010,04,02,02,17,1002.98
2010,04,02,02,18,1002.98
2010,04,02,02,19,1002.98
2010,04,02,02,20,1002.98
2010,04,02,02,21,1002.98
2010,04,02,02,22,1002.98
2010,04,02,02,23,1002.98
2010,04,02,02,24,1002.98
2010,04,02,02,25,1002.98
2010,04,02,02,26,1002.98
2010,04,02,02,27,1002.98
2010,04,02,02,28,1002.98
2010,04,02,02,29,1002.98
2010,04,02,02,30,1002.51
2010,04,02,02,31,1002.51
2010,04,02,02,32,1002.51
2010,04,02,02,33,1002.51
2010,04,02,02,34,1002.51
2010,04,02,02,35,1002.51
2010,04,02,02,36,1002.51
2010,04,02,02,37,1002.51
2010,04,02,02,38,1002.51
2010,04,02,02,39,1002.51
2010,04,02,02,40,1002.51
2010,04,02,02,41,1002.51
2010,04,02,02,42,1002.51
2010,04,02,02,43,1002.51
2010,04,02,02,44,1002.51
2010,04,02,02,45,1001.97
2010,04,02,02,46,1001.97
2010,04,02,02,47,1001.97
2010,04,02,02,48,1001.97
2010,04,02,02,49,1001.97
2010,04,02,02,50,1001.97
2010,04,02,02,51,1001.97
2010,04,02,02,52,1001.97
2010,04,02,02,53,1001.97
2010,04,02,02,54,1001.97
2010,04,02,02,55,1001.97
2010,04,02,02,56,1001.97
2010,04,02,02,57,1001.97
2010,04,02,02,58,1001.97
2010,04,02,02,59,1001.97
2010,04,02,03,00,1001.59
2010,04,02,03,01,1001.59
2010,04,02,03,02,1001.59
2010,04,02,03,03,1001.59
2010,04,02,03,04,1001.59
2010,04,02,03,05,1001.59
2010,04,02,03,06,1001.59
2010,04,02,03,07,1001.59
2010,04,02,03,08,1001.59
2010,04,02,03,09,1001.59
2010,04,02,03,10,1001.59
2010,04,02,03,11,1001.59
2010,04,02,03,12,1001.59
2010,04,02,03,13,1001.59
2010,04,02,03,14,1001.59
2010,04,02,03,15,1001.14
2010,04,02,03,16,1001.12
2010,04,02,03,17,1001.12
2010,04,02,03,18,1001.12
2010,04,02,03,19,1001.12
2010,04,02,03,20,1001.12
2010,04,02,03,21,1001.12
2010,04,02,03,22,1001.12
2010,04,02,03,23,1001.12
2010,04,02,03,24,1001.12
2010,04,02,03,25,1001.12
2010,04,02,03,26,1001.12
2010,04,02,03,27,1001.12
2010,04,02,03,28,1001.12
2010,04,02,03,29,1001.12
2010,04,02,03,30,1000.98
2010,04,02,03,31,1000.98
2010,04,02,03,32,1000.98
2010,04,02,03,33,1000.98
2010,04,02,03,34,1000.98
2010,04,02,03,35,1000.98
2010,04,02,03,36,1000.98
2010,04,02,03,37,1000.98
2010,04,02,03,38,1000.98
2010,04,02,03,39,1000.98
2010,04,02,03,40,1000.98
2010,04,02,03,41,1000.98
2010,04,02,03,42,1000.98
2010,04,02,03,43,1000.98
2010,04,02,03,44,1000.98
2010,04,02,03,45,1000.64
2010,04,02,03,46,1000.64
2010,04,02,03,47,1000.64
2010,04,02,03,48,1000.64
2010,04,02,03,49,1000.64
2010,04,02,03,50,1000.64
2010,04,02,03,51,1000.64
2010,04,02,03,52,1000.64
2010,04,02,03,53,1000.64
2010,04,02,03,54,1000.64
2010,04,02,03,55,1000.64
2010,04,02,03,56,1000.64
2010,04,02,03,57,1000.64
2010,04,02,03,58,1000.64
2010,04,02,03,59,1000.64
2010,04,02,04,00,1000.81
2010,04,02,04,01,1000.81
2010,04,02,04,02,1000.81
2010,04,02,04,03,1000.81
2010,04,02,04,04,1000.81
2010,04,02,04,05,1000.81
2010,04,02,04,06,1000.81
2010,04,02,04,07,1000.81
2010,04,02,04,08,1000.81
2010,04,02,04,09,1000.81
2010,04,02,04,10,1000.81
2010,04,02,04,11,1000.81
2010,04,02,04,12,1000.81
2010,04,02,04,13,1000.81
2010,04,02,04,14,1000.81
2010,04,02,04,15,1000.41
2010,04,02,04,16,1000.41
2010,04,02,04,17,1000.41
2010,04,02,04,18,1000.41
2010,04,02,04,19,1000.41
2010,04,02,04,20,1000.41
2010,04,02,04,21,1000.41
2010,04,02,04,22,1000.41
2010,04,02,04,23,1000.41
2010,04,02,04,24,1000.41
2010,04,02,04,25,1000.41
2010,04,02,04,26,1000.41
2010,04,02,04,27,1000.41
2010,04,02,04,28,1000.41
2010,04,02,04,29,1000.41
2010,04,02,04,30,999.97
2010,04,02,04,31,999.97
2010,04,02,04,32,999.97
2010,04,02,04,33,999.97
2010,04,02,04,34,999.97
2010,04,02,04,35,999.97
2010,04,02,04,36,999.97
2010,04,02,04,37,999.97
2010,04,02,04,38,999.97
2010,04,02,04,39,999.97
2010,04,02,04,40,999.97
2010,04,02,04,41,999.97
2010,04,02,04,42,999.97
2010,04,02,04,43,999.97
2010,04,02,04,44,999.97
2010,04,02,04,45,999.87
2010,04,02,04,46,999.87
2010,04,02,04,47,999.87
2010,04,02,04,48,999.87
2010,04,02,04,49,999.87
2010,04,02,04,50,999.87
2010,04,02,04,51,999.87
2010,04,02,04,52,999.87
2010,04,02,04,53,999.87
2010,04,02,04,54,999.87
2010,04,02,04,55,999.87
2010,04,02,04,56,999.87
2010,04,02,04,57,999.87
2010,04,02,04,58,999.87
2010,04,02,04,59,999.87
2010,04,02,05,00,999.39
2010,04,02,05,01,999.39
2010,04,02,05,02,999.39
2010,04,02,05,03,999.39
2010,04,02,05,04,999.39
2010,04,02,05,05,999.39
2010,04,02,05,06,999.39
2010,04,02,05,07,999.39
2010,04,02,05,08,999.39
2010,04,02,05,09,999.39
2010,04,02,05,10,999.39
2010,04,02,05,11,999.39
2010,04,02,05,12,999.39
2010,04,02,05,13,999.39
2010,04,02,05,14,999.39
2010,04,02,05,15,998.78
2010,04,02,05,16,998.78
2010,04,02,05,17,998.78
2010,04,02,05,18,998.78
2010,04,02,05,19,998.78
2010,04,02,05,20,998.78
2010,04,02,05,21,998.78
2010,04,02,05,22,998.78
2010,04,02,05,23,998.78
2010,04,02,05,24,998.78
2010,04,02,05,25,998.78
2010,04,02,05,26,998.78
2010,04,02,05,27,998.78
2010,04,02,05,28,998.78
2010,04,02,05,29,998.78
2010,04,02,05,30,998.04
2010,04,02,05,31,998.04
2010,04,02,05,32,998.04
2010,04,02,05,33,998.04
2010,04,02,05,34,998.04
2010,04,02,05,35,998.04
2010,04,02,05,36,998.04
2010,04,02,05,37,998.04
2010,04,02,05,38,998.04
2010,04,02,05,39,998.04
2010,04,02,05,40,998.04
2010,04,02,05,41,998.04
2010,04,02,05,42,998.04
2010,04,02,05,43,998.04
2010,04,02,05,44,998.04
2010,04,02,05,45,997.22
2010,04,02,05,46,997.22
2010,04,02,05,47,997.22
2010,04,02,05,48,997.22
2010,04,02,05,49,997.22
2010,04,02,05,50,997.22
2010,04,02,05,51,997.22
2010,04,02,05,52,997.22
2010,04,02,05,53,997.22
2010,04,02,05,54,997.22
2010,04,02,05,55,997.22
2010,04,02,05,56,997.22
2010,04,02,05,57,997.22
2010,04,02,05,58,997.22
2010,04,02,05,59,997.22
2010,04,02,06,00,996.17
2010,04,02,06,01,996.17
2010,04,02,06,02,996.17
2010,04,02,06,03,996.17
2010,04,02,06,04,996.17
2010,04,02,06,05,996.17
2010,04,02,06,06,996.17
2010,04,02,06,07,996.17
2010,04,02,06,08,996.17
2010,04,02,06,09,996.17
2010,04,02,06,10,996.17
2010,04,02,06,11,996.17
2010,04,02,06,12,996.17
2010,04,02,06,13,996.17
2010,04,02,06,14,996.17
2010,04,02,06,15,995.56
2010,04,02,06,16,995.53
2010,04,02,06,17,995.53
2010,04,02,06,18,995.53
2010,04,02,06,19,995.53
2010,04,02,06,20,995.53
2010,04,02,06,21,995.53
2010,04,02,06,22,995.53
2010,04,02,06,23,995.53
2010,04,02,06,24,995.53
2010,04,02,06,25,995.53
2010,04,02,06,26,995.53
2010,04,02,06,27,995.53
2010,04,02,06,28,995.53
2010,04,02,06,29,995.53
2010,04,02,06,30,994.66
2010,04,02,06,31,994.62
2010,04,02,06,32,994.62
2010,04,02,06,33,994.62
2010,04,02,06,34,994.62
2010,04,02,06,35,994.62
2010,04,02,06,36,994.62
2010,04,02,06,37,994.62
2010,04,02,06,38,994.62
2010,04,02,06,39,994.62
2010,04,02,06,40,994.62
2010,04,02,06,41,994.62
2010,04,02,06,42,994.62
2010,04,02,06,43,994.62
2010,04,02,06,44,994.62
2010,04,02,06,45,994.58
2010,04,02,06,46,994.58
2010,04,02,06,47,994.58
2010,04,02,06,48,994.58
2010,04,02,06,49,994.58
2010,04,02,06,50,994.58
2010,04,02,06,51,994.58
2010,04,02,06,52,994.58
2010,04,02,06,53,994.58
2010,04,02,06,54,994.58
2010,04,02,06,55,994.58
2010,04,02,06,56,994.58
2010,04,02,06,57,994.58
2010,04,02,06,58,994.58
2010,04,02,06,59,994.58
2010,04,02,07,00,994.14
2010,04,02,07,01,994.14
2010,04,02,07,02,994.14
2010,04,02,07,03,994.14
2010,04,02,07,04,994.14
2010,04,02,07,05,994.14
2010,04,02,07,06,994.14
2010,04,02,07,07,994.14
2010,04,02,07,08,994.14
2010,04,02,07,09,994.14
2010,04,02,07,10,994.14
2010,04,02,07,11,994.14
2010,04,02,07,12,994.14
2010,04,02,07,13,994.14
2010,04,02,07,14,994.14
2010,04,02,07,15,993.47
2010,04,02,07,16,993.47
2010,04,02,07,17,993.47
2010,04,02,07,18,993.47
2010,04,02,07,19,993.47
2010,04,02,07,20,993.47
2010,04,02,07,21,993.47
2010,04,02,07,22,993.47
2010,04,02,07,23,993.47
2010,04,02,07,24,993.47
2010,04,02,07,25,993.47
2010,04,02,07,26,993.47
2010,04,02,07,27,993.47
2010,04,02,07,28,993.47
2010,04,02,07,29,993.47
2010,04,02,07,30,992.55
2010,04,02,07,31,992.55
2010,04,02,07,32,992.55
2010,04,02,07,33,992.55
2010,04,02,07,34,992.55
2010,04,02,07,35,992.55
2010,04,02,07,36,992.55
2010,04,02,07,37,992.55
2010,04,02,07,38,992.55
2010,04,02,07,39,992.55
2010,04,02,07,40,992.55
2010,04,02,07,41,992.55
2010,04,02,07,42,992.55
2010,04,02,07,43,992.55
2010,04,02,07,44,992.55
2010,04,02,07,45,992.48
2010,04,02,07,46,992.48
2010,04,02,07,47,992.48
2010,04,02,07,48,992.48
2010,04,02,07,49,992.48
2010,04,02,07,50,992.48
2010,04,02,07,51,992.48
2010,04,02,07,52,992.48
2010,04,02,07,53,992.48
2010,04,02,07,54,992.48
2010,04,02,07,55,992.48
2010,04,02,07,56,992.48
2010,04,02,07,57,992.48
2010,04,02,07,58,992.48
2010,04,02,07,59,992.48
2010,04,02,08,00,991.68
2010,04,02,08,01,991.60
2010,04,02,08,02,991.60
2010,04,02,08,03,991.60
2010,04,02,08,04,991.60
2010,04,02,08,05,991.60
2010,04,02,08,06,991.60
2010,04,02,08,07,991.60
2010,04,02,08,08,991.60
2010,04,02,08,09,991.60
2010,04,02,08,10,991.60
2010,04,02,08,11,991.60
2010,04,02,08,12,991.60
2010,04,02,08,13,991.60
2010,04,02,08,14,991.60
2010,04,02,08,15,991.20
2010,04,02,08,16,991.20
2010,04,02,08,17,991.20
2010,04,02,08,18,991.20
2010,04,02,08,19,991.20
2010,04,02,08,20,991.20
2010,04,02,08,21,991.20
2010,04,02,08,22,991.20
2010,04,02,08,23,991.20
2010,04,02,08,24,991.20
2010,04,02,08,25,991.20
2010,04,02,08,26,991.20
2010,04,02,08,27,991.20
2010,04,02,08,28,991.20
2010,04,02,08,29,991.20
2010,04,02,08,30,990.42
2010,04,02,08,31,990.42
2010,04,02,08,32,990.42
2010,04,02,08,33,990.42
2010,04,02,08,34,990.42
2010,04,02,08,35,990.42
2010,04,02,08,36,990.42
2010,04,02,08,37,990.42
2010,04,02,08,38,990.42
2010,04,02,08,39,990.42
2010,04,02,08,40,990.42
2010,04,02,08,41,990.42
2010,04,02,08,42,990.42
2010,04,02,08,43,990.42
2010,04,02,08,44,990.42
2010,04,02,08,45,989.40
2010,04,02,08,46,989.40
2010,04,02,08,47,989.40
2010,04,02,08,48,989.40
2010,04,02,08,49,989.40
2010,04,02,08,50,989.40
2010,04,02,08,51,989.40
2010,04,02,08,52,989.40
2010,04,02,08,53,989.40
2010,04,02,08,54,989.40
2010,04,02,08,55,989.40
2010,04,02,08,56,989.40
2010,04,02,08,57,989.40
2010,04,02,08,58,989.40
2010,04,02,08,59,989.40
2010,04,02,09,00,988.69
2010,04,02,09,01,988.62
2010,04,02,09,02,988.62
2010,04,02,09,03,988.62
2010,04,02,09,04,988.62
2010,04,02,09,05,988.62
2010,04,02,09,06,988.62
2010,04,02,09,07,988.62
2010,04,02,09,08,988.62
2010,04,02,09,09,988.62
2010,04,02,09,10,988.62
2010,04,02,09,11,988.62
2010,04,02,09,12,988.62
2010,04,02,09,13,988.62
2010,04,02,09,14,988.62
2010,04,02,09,15,988.18
2010,04,02,09,16,988.18
2010,04,02,09,17,988.18
2010,04,02,09,18,988.18
2010,04,02,09,19,988.18
2010,04,02,09,20,988.18
2010,04,02,09,21,988.18
2010,04,02,09,22,988.18
2010,04,02,09,23,988.18
2010,04,02,09,24,988.18
2010,04,02,09,25,988.18
2010,04,02,09,26,988.18
2010,04,02,09,27,988.18
2010,04,02,09,28,988.18
2010,04,02,09,29,988.18
2010,04,02,09,30,987.37
2010,04,02,09,31,987.37
2010,04,02,09,32,987.37
2010,04,02,09,33,987.37
2010,04,02,09,34,987.37
2010,04,02,09,35,987.37
2010,04,02,09,36,987.37
2010,04,02,09,37,987.37
2010,04,02,09,38,987.37
2010,04,02,09,39,987.37
2010,04,02,09,40,987.37
2010,04,02,09,41,987.37
2010,04,02,09,42,987.37
2010,04,02,09,43,987.37
2010,04,02,09,44,987.37
2010,04,02,09,45,986.69
2010,04,02,09,46,986.69
2010,04,02,09,47,986.69
2010,04,02,09,48,986.69
2010,04,02,09,49,986.69
2010,04,02,09,50,986.69
2010,04,02,09,51,986.69
2010,04,02,09,52,986.69
2010,04,02,09,53,986.69
2010,04,02,09,54,986.69
2010,04,02,09,55,986.69
2010,04,02,09,56,986.69
2010,04,02,09,57,986.69
2010,04,02,09,58,986.69
2010,04,02,09,59,986.69
2010,04,02,10,00,986.69
2010,04,02,10,01,986.69
2010,04,02,10,02,986.69
2010,04,02,10,03,986.69
2010,04,02,10,04,986.69
2010,04,02,10,05,986.69
2010,04,02,10,06,986.69
2010,04,02,10,07,986.69
2010,04,02,10,08,986.69
2010,04,02,10,09,986.69
2010,04,02,10,10,986.69
2010,04,02,10,11,986.69
2010,04,02,10,12,986.69
2010,04,02,10,13,986.69
2010,04,02,10,14,986.69
2010,04,02,10,15,985.51
2010,04,02,10,16,985.51
2010,04,02,10,17,985.51
2010,04,02,10,18,985.51
2010,04,02,10,19,985.51
2010,04,02,10,20,985.51
2010,04,02,10,21,985.51
2010,04,02,10,22,985.51
2010,04,02,10,23,985.51
2010,04,02,10,24,985.51
2010,04,02,10,25,985.51
2010,04,02,10,26,985.51
2010,04,02,10,27,985.51
2010,04,02,10,28,985.51
2010,04,02,10,29,985.51
2010,04,02,10,30,985.24
2010,04,02,10,31,985.24
2010,04,02,10,32,985.24
2010,04,02,10,33,985.24
2010,04,02,10,34,985.24
2010,04,02,10,35,985.24
2010,04,02,10,36,985.24
2010,04,02,10,37,985.24
2010,04,02,10,38,985.24
2010,04,02,10,39,985.24
2010,04,02,10,40,985.24
2010,04,02,10,41,985.24
2010,04,02,10,42,985.24
2010,04,02,10,43,985.24
2010,04,02,10,44,985.24
2010,04,02,10,45,985.54
2010,04,02,10,46,985.54
2010,04,02,10,47,985.54
2010,04,02,10,48,985.54
2010,04,02,10,49,985.54
2010,04,02,10,50,985.54
2010,04,02,10,51,985.54
2010,04,02,10,52,985.54
2010,04,02,10,53,985.54
2010,04,02,10,54,985.54
2010,04,02,10,55,985.54
2010,04,02,10,56,985.54
2010,04,02,10,57,985.54
2010,04,02,10,58,985.54
2010,04,02,10,59,985.54
2010,04,02,11,00,985.44
2010,04,02,11,01,985.44
2010,04,02,11,02,985.44
2010,04,02,11,03,985.44
2010,04,02,11,04,985.44
2010,04,02,11,05,985.44
2010,04,02,11,06,985.44
2010,04,02,11,07,985.44
2010,04,02,11,08,985.44
2010,04,02,11,09,985.44
2010,04,02,11,10,985.44
2010,04,02,11,11,985.44
2010,04,02,11,12,985.44
2010,04,02,11,13,985.44
2010,04,02,11,14,985.44
2010,04,02,11,15,984.86
2010,04,02,11,16,984.86
2010,04,02,11,17,984.86
2010,04,02,11,18,984.86
2010,04,02,11,19,984.86
2010,04,02,11,20,984.86
2010,04,02,11,21,984.86
2010,04,02,11,22,984.86
2010,04,02,11,23,984.86
2010,04,02,11,24,984.86
2010,04,02,11,25,984.86
2010,04,02,11,26,984.86
2010,04,02,11,27,984.86
2010,04,02,11,28,984.86
2010,04,02,11,29,984.86
2010,04,02,11,30,985.13
2010,04,02,11,31,985.13
2010,04,02,11,32,985.13
2010,04,02,11,33,985.13
2010,04,02,11,34,985.13
2010,04,02,11,35,985.13
2010,04,02,11,36,985.13
2010,04,02,11,37,985.13
2010,04,02,11,38,985.13
2010,04,02,11,39,985.13
2010,04,02,11,40,985.13
2010,04,02,11,41,985.13
2010,04,02,11,42,985.13
2010,04,02,11,43,985.13
2010,04,02,11,44,985.13
2010,04,02,11,45,985.54
2010,04,02,11,46,985.54
2010,04,02,11,47,985.54
2010,04,02,11,48,985.54
2010,04,02,11,49,985.54
2010,04,02,11,50,985.54
2010,04,02,11,51,985.54
2010,04,02,11,52,985.54
2010,04,02,11,53,985.54
2010,04,02,11,54,985.54
2010,04,02,11,55,985.54
2010,04,02,11,56,985.54
2010,04,02,11,57,985.54
2010,04,02,11,58,985.54
2010,04,02,11,59,985.54
2010,04,02,12,00,985.25
2010,04,02,12,01,985.24
2010,04,02,12,02,985.24
2010,04,02,12,03,985.24
2010,04,02,12,04,985.24
2010,04,02,12,05,985.24
2010,04,02,12,06,985.24
2010,04,02,12,07,985.24
2010,04,02,12,08,985.24
2010,04,02,12,09,985.24
2010,04,02,12,10,985.24
2010,04,02,12,11,985.24
2010,04,02,12,12,985.24
2010,04,02,12,13,985.24
2010,04,02,12,14,985.24
2010,04,02,12,15,985.61
2010,04,02,12,16,985.61
2010,04,02,12,17,985.61
2010,04,02,12,18,985.61
2010,04,02,12,19,985.61
2010,04,02,12,20,985.61
2010,04,02,12,21,985.61
2010,04,02,12,22,985.61
2010,04,02,12,23,985.61
2010,04,02,12,24,985.61
2010,04,02,12,25,985.61
2010,04,02,12,26,985.61
2010,04,02,12,27,985.61
2010,04,02,12,28,985.61
2010,04,02,12,29,985.61
2010,04,02,12,30,985.57
2010,04,02,12,31,985.57
2010,04,02,12,32,985.57
2010,04,02,12,33,985.57
2010,04,02,12,34,985.57
2010,04,02,12,35,985.57
2010,04,02,12,36,985.57
2010,04,02,12,37,985.57
2010,04,02,12,38,985.57
2010,04,02,12,39,985.57
2010,04,02,12,40,985.57
2010,04,02,12,41,985.57
2010,04,02,12,42,985.57
2010,04,02,12,43,985.57
2010,04,02,12,44,985.57
2010,04,02,12,45,985.47
2010,04,02,12,46,985.47
2010,04,02,12,47,985.47
2010,04,02,12,48,985.47
2010,04,02,12,49,985.47
2010,04,02,12,50,985.47
2010,04,02,12,51,985.47
2010,04,02,12,52,985.47
2010,04,02,12,53,985.47
2010,04,02,12,54,985.47
2010,04,02,12,55,985.47
2010,04,02,12,56,985.47
2010,04,02,12,57,985.47
2010,04,02,12,58,985.47
2010,04,02,12,59,985.47
2010,04,02,13,00,985.41
2010,04,02,13,01,985.41
2010,04,02,13,02,985.41
2010,04,02,13,03,985.41
2010,04,02,13,04,985.41
2010,04,02,13,05,985.41
2010,04,02,13,06,985.41
2010,04,02,13,07,985.41
2010,04,02,13,08,985.41
2010,04,02,13,09,985.41
2010,04,02,13,10,985.41
2010,04,02,13,11,985.41
2010,04,02,13,12,985.41
2010,04,02,13,13,985.41
2010,04,02,13,14,985.41
2010,04,02,13,15,985.67
2010,04,02,13,16,985.68
2010,04,02,13,17,985.68
2010,04,02,13,18,985.68
2010,04,02,13,19,985.68
2010,04,02,13,20,985.68
2010,04,02,13,21,985.68
2010,04,02,13,22,985.68
2010,04,02,13,23,985.68
2010,04,02,13,24,985.68
2010,04,02,13,25,985.68
2010,04,02,13,26,985.68
2010,04,02,13,27,985.68
2010,04,02,13,28,985.68
2010,04,02,13,29,985.68
2010,04,02,13,30,985.95
2010,04,02,13,31,985.95
2010,04,02,13,32,985.95
2010,04,02,13,33,985.95
2010,04,02,13,34,985.95
2010,04,02,13,35,985.95
2010,04,02,13,36,985.95
2010,04,02,13,37,985.95
2010,04,02,13,38,985.95
2010,04,02,13,39,985.95
2010,04,02,13,40,985.95
2010,04,02,13,41,985.95
2010,04,02,13,42,985.95
2010,04,02,13,43,985.95
2010,04,02,13,44,985.95
2010,04,02,13,45,986.14
2010,04,02,13,46,986.15
2010,04,02,13,47,986.15
2010,04,02,13,48,986.15
2010,04,02,13,49,986.15
2010,04,02,13,50,986.15
2010,04,02,13,51,986.15
2010,04,02,13,52,986.15
2010,04,02,13,53,986.15
2010,04,02,13,54,986.15
2010,04,02,13,55,986.15
2010,04,02,13,56,986.15
2010,04,02,13,57,986.15
2010,04,02,13,58,986.15
2010,04,02,13,59,986.15
2010,04,02,14,00,986.03
2010,04,02,14,01,986.02
2010,04,02,14,02,986.02
2010,04,02,14,03,986.02
2010,04,02,14,04,986.02
2010,04,02,14,05,986.02
2010,04,02,14,06,986.02
2010,04,02,14,07,986.02
2010,04,02,14,08,986.02
2010,04,02,14,09,986.02
2010,04,02,14,10,986.02
2010,04,02,14,11,986.02
2010,04,02,14,12,986.02
2010,04,02,14,13,986.02
2010,04,02,14,14,986.02
2010,04,02,14,15,986.22
2010,04,02,14,16,986.22
2010,04,02,14,17,986.22
2010,04,02,14,18,986.22
2010,04,02,14,19,986.22
2010,04,02,14,20,986.22
2010,04,02,14,21,986.22
2010,04,02,14,22,986.22
2010,04,02,14,23,986.22
2010,04,02,14,24,986.22
2010,04,02,14,25,986.22
2010,04,02,14,26,986.22
2010,04,02,14,27,986.22
2010,04,02,14,28,986.22
2010,04,02,14,29,986.22
2010,04,02,14,30,986.66
2010,04,02,14,31,986.66
2010,04,02,14,32,986.66
2010,04,02,14,33,986.66
2010,04,02,14,34,986.66
2010,04,02,14,35,986.66
2010,04,02,14,36,986.66
2010,04,02,14,37,986.66
2010,04,02,14,38,986.66
2010,04,02,14,39,986.66
2010,04,02,14,40,986.66
2010,04,02,14,41,986.66
2010,04,02,14,42,986.66
2010,04,02,14,43,986.66
2010,04,02,14,44,986.66
2010,04,02,14,45,986.95
2010,04,02,14,46,986.96
2010,04,02,14,47,986.96
2010,04,02,14,48,986.96
2010,04,02,14,49,986.96
2010,04,02,14,50,986.96
2010,04,02,14,51,986.96
2010,04,02,14,52,986.96
2010,04,02,14,53,986.96
2010,04,02,14,54,986.96
2010,04,02,14,55,986.96
2010,04,02,14,56,986.96
2010,04,02,14,57,986.96
2010,04,02,14,58,986.96
2010,04,02,14,59,986.96
2010,04,02,15,00,987.19
2010,04,02,15,01,987.20
2010,04,02,15,02,987.20
2010,04,02,15,03,987.20
2010,04,02,15,04,987.20
2010,04,02,15,05,987.20
2010,04,02,15,06,987.20
2010,04,02,15,07,987.20
2010,04,02,15,08,987.20
2010,04,02,15,09,987.20
2010,04,02,15,10,987.20
2010,04,02,15,11,987.20
2010,04,02,15,12,987.20
2010,04,02,15,13,987.20
2010,04,02,15,14,987.20
2010,04,02,15,15,987.74
2010,04,02,15,16,987.74
2010,04,02,15,17,987.74
2010,04,02,15,18,987.74
2010,04,02,15,19,987.74
2010,04,02,15,20,987.74
2010,04,02,15,21,987.74
2010,04,02,15,22,987.74
2010,04,02,15,23,987.74
2010,04,02,15,24,987.74
2010,04,02,15,25,987.74
2010,04,02,15,26,987.74
2010,04,02,15,27,987.74
2010,04,02,15,28,987.74
2010,04,02,15,29,987.74
2010,04,02,15,30,988.18
2010,04,02,15,31,988.18
2010,04,02,15,32,988.18
2010,04,02,15,33,988.18
2010,04,02,15,34,988.18
2010,04,02,15,35,988.18
2010,04,02,15,36,988.18
2010,04,02,15,37,988.18
2010,04,02,15,38,988.18
2010,04,02,15,39,988.18
2010,04,02,15,40,988.18
2010,04,02,15,41,988.18
2010,04,02,15,42,988.18
2010,04,02,15,43,988.18
2010,04,02,15,44,988.18
2010,04,02,15,45,988.39
2010,04,02,15,46,988.39
2010,04,02,15,47,988.39
2010,04,02,15,48,988.39
2010,04,02,15,49,988.39
2010,04,02,15,50,988.39
2010,04,02,15,51,988.39
2010,04,02,15,52,988.39
2010,04,02,15,53,988.39
2010,04,02,15,54,988.39
2010,04,02,15,55,988.39
2010,04,02,15,56,988.39
2010,04,02,15,57,988.39
2010,04,02,15,58,988.39
2010,04,02,15,59,988.39
2010,04,02,16,00,988.77
2010,04,02,16,01,988.79
2010,04,02,16,02,988.79
2010,04,02,16,03,988.79
2010,04,02,16,04,988.79
2010,04,02,16,05,988.79
2010,04,02,16,06,988.79
2010,04,02,16,07,988.79
2010,04,02,16,08,988.79
2010,04,02,16,09,988.79
2010,04,02,16,10,988.79
2010,04,02,16,11,988.79
2010,04,02,16,12,988.79
2010,04,02,16,13,988.79
2010,04,02,16,14,988.79
2010,04,02,16,15,988.83
2010,04,02,16,16,988.83
2010,04,02,16,17,988.83
2010,04,02,16,18,988.83
2010,04,02,16,19,988.83
2010,04,02,16,20,988.83
2010,04,02,16,21,988.83
2010,04,02,16,22,988.83
2010,04,02,16,23,988.83
2010,04,02,16,24,988.83